| time (UTC) | temp C | wind direction | speed KPH | gust KPH | rain 1hr cm | rain 24hr cm | rain mn cm | humidity % | barometer mb |
| 20260906140035 | 21 | 147 | 3.2 | 8.0 | 0.00 | 0.00 | 0.00 | 81 | 1019.9 |
| 20260906135518 | 20 | 121 | 1.6 | 8.0 | 0.00 | 0.00 | 0.00 | 81 | 1019.9 |
| 20260906135017 | 20 | 115 | 3.2 | 8.0 | 0.00 | 0.00 | 0.00 | 82 | 1019.9 |
| 20260906134537 | 20 | 113 | 1.6 | 11.3 | 0.00 | 0.00 | 0.00 | 83 | 1019.9 |
| 20260906134016 | 20 | 122 | 3.2 | 11.3 | 0.00 | 0.00 | 0.00 | 85 | 1019.9 |
| 20260906133515 | 19 | 96 | 0.0 | 9.7 | 0.00 | 0.00 | 0.00 | 86 | 1019.9 |
| 20260906133033 | 19 | 113 | 3.2 | 9.7 | 0.00 | 0.00 | 0.00 | 89 | 1019.8 |
| 20260906132516 | 18 | 106 | 1.6 | 4.8 | 0.00 | 0.00 | 0.00 | 91 | 1019.7 |
| 20260906132020 | 18 | 0 | 0.0 | 4.8 | 0.00 | 0.00 | 0.00 | 93 | 1019.6 |
| 20260906131539 | 18 | 138 | 0.0 | 4.8 | 0.00 | 0.00 | 0.00 | 94 | 1019.6 |
| 20260906131021 | 18 | 107 | 0.0 | 4.8 | 0.00 | 0.00 | 0.00 | 94 | 1019.5 |
| 20260906130518 | 18 | 0 | 0.0 | 4.8 | 0.00 | 0.00 | 0.00 | 94 | 1019.5 |
| 20260906130041 | 18 | 0 | 1.6 | 4.8 | 0.00 | 0.00 | 0.00 | 95 | 1019.4 |
| 20260906125516 | 18 | 100 | 0.0 | 3.2 | 0.00 | 0.00 | 0.00 | 95 | 1019.3 |
| 20260906125015 | 17 | 0 | 0.0 | 0.0 | 0.00 | 0.00 | 0.00 | 95 | 1019.1 |
| 20260906124535 | 17 | 0 | 0.0 | 0.0 | 0.00 | 0.00 | 0.00 | 95 | 1019.1 |
| 20260906124018 | 17 | 0 | 0.0 | 0.0 | 0.00 | 0.00 | 0.00 | 95 | 1019.2 |
| 20260906123517 | 17 | 0 | 0.0 | 0.0 | 0.00 | 0.00 | 0.00 | 94 | 1019.1 |
| 20260906123035 | 17 | 0 | 0.0 | 0.0 | 0.00 | 0.00 | 0.00 | 94 | 1019.1 |
| 20260906122517 | 17 | 0 | 0.0 | 0.0 | 0.00 | 0.00 | 0.00 | 94 | 1019.2 |
| 20260906122019 | 17 | 0 | 0.0 | 0.0 | 0.00 | 0.00 | 0.00 | 94 | 1019.0 |
| 20260906121537 | 17 | 0 | 0.0 | 0.0 | 0.00 | 0.00 | 0.00 | 95 | 1019.1 |
| 20260906121021 | 17 | 0 | 0.0 | 0.0 | 0.00 | 0.00 | 0.00 | 94 | 1019.0 |
| 20260906120522 | 17 | 0 | 0.0 | 0.0 | 0.00 | 0.00 | 0.00 | 94 | 1018.9 |
| 20260906120034 | 17 | 0 | 0.0 | 0.0 | 0.00 | 0.00 | 0.00 | 94 | 1018.8 |
| 20260906115520 | 17 | 0 | 0.0 | 0.0 | 0.00 | 0.00 | 0.00 | 94 | 1018.7 |
| 20260906115016 | 17 | 0 | 0.0 | 0.0 | 0.00 | 0.00 | 0.00 | 93 | 1018.7 |
| 20260906114538 | 17 | 0 | 0.0 | 0.0 | 0.00 | 0.00 | 0.00 | 93 | 1018.7 |
| 20260906114017 | 17 | 0 | 0.0 | 0.0 | 0.00 | 0.00 | 0.00 | 93 | 1018.7 |
| 20260906113517 | 17 | 0 | 0.0 | 0.0 | 0.00 | 0.00 | 0.00 | 93 | 1018.6 |
| 20260906113035 | 17 | 0 | 0.0 | 0.0 | 0.00 | 0.00 | 0.00 | 93 | 1018.4 |
| 20260906112519 | 17 | 0 | 0.0 | 0.0 | 0.00 | 0.00 | 0.00 | 93 | 1018.3 |
| 20260906112020 | 17 | 0 | 0.0 | 0.0 | 0.00 | 0.00 | 0.00 | 93 | 1018.4 |
| 20260906111536 | 17 | 0 | 0.0 | 0.0 | 0.00 | 0.00 | 0.00 | 93 | 1018.5 |
| 20260906111016 | 17 | 0 | 0.0 | 0.0 | 0.00 | 0.00 | 0.00 | 93 | 1018.4 |
| 20260906110517 | 17 | 0 | 0.0 | 0.0 | 0.00 | 0.00 | 0.00 | 93 | 1018.2 |
| 20260906110035 | 17 | 0 | 0.0 | 0.0 | 0.00 | 0.00 | 0.00 | 93 | 1018.3 |
| 20260906105517 | 18 | 0 | 0.0 | 0.0 | 0.00 | 0.00 | 0.00 | 93 | 1018.3 |
| 20260906105019 | 18 | 0 | 0.0 | 0.0 | 0.00 | 0.00 | 0.00 | 93 | 1018.2 |
| 20260906104533 | 18 | 0 | 0.0 | 0.0 | 0.00 | 0.00 | 0.00 | 93 | 1018.2 |
| 20260906104017 | 18 | 0 | 0.0 | 0.0 | 0.00 | 0.00 | 0.00 | 93 | 1018.3 |
| 20260906103519 | 18 | 0 | 0.0 | 0.0 | 0.00 | 0.00 | 0.00 | 93 | 1018.4 |
| 20260906103036 | 18 | 0 | 0.0 | 0.0 | 0.00 | 0.00 | 0.00 | 93 | 1018.3 |
| 20260906102517 | 18 | 0 | 0.0 | 0.0 | 0.00 | 0.00 | 0.00 | 93 | 1018.3 |
| 20260906102018 | 18 | 0 | 0.0 | 3.2 | 0.00 | 0.00 | 0.00 | 93 | 1018.3 |
| 20260906101537 | 18 | 0 | 0.0 | 4.8 | 0.00 | 0.00 | 0.00 | 93 | 1018.2 |
| 20260906101018 | 18 | 360 | 0.0 | 4.8 | 0.00 | 0.00 | 0.00 | 93 | 1018.2 |
| 20260906100516 | 18 | 0 | 0.0 | 0.0 | 0.00 | 0.00 | 0.00 | 93 | 1018.2 |
| 20260906100039 | 18 | 0 | 0.0 | 0.0 | 0.00 | 0.00 | 0.00 | 94 | 1018.2 |
| 20260906095517 | 18 | 0 | 0.0 | 0.0 | 0.00 | 0.00 | 0.00 | 94 | 1018.2 |
| 20260906095018 | 18 | 0 | 0.0 | 0.0 | 0.00 | 0.00 | 0.00 | 94 | 1018.2 |
| 20260906094537 | 17 | 0 | 0.0 | 0.0 | 0.00 | 0.00 | 0.00 | 94 | 1018.0 |
| 20260906094017 | 17 | 0 | 0.0 | 0.0 | 0.00 | 0.00 | 0.00 | 93 | 1018.1 |
| 20260906093518 | 17 | 0 | 0.0 | 0.0 | 0.00 | 0.00 | 0.00 | 93 | 1018.1 |
| 20260906093051 | 17 | 0 | 0.0 | 1.6 | 0.00 | 0.00 | 0.00 | 93 | 1017.9 |
| 20260906092519 | 17 | 0 | 0.0 | 4.8 | 0.00 | 0.00 | 0.00 | 93 | 1017.9 |
| 20260906092017 | 17 | 0 | 0.0 | 4.8 | 0.00 | 0.00 | 0.00 | 93 | 1017.9 |
| 20260906091540 | 17 | 9 | 0.0 | 4.8 | 0.00 | 0.00 | 0.00 | 93 | 1017.9 |
| 20260906091019 | 18 | 0 | 0.0 | 1.6 | 0.00 | 0.00 | 0.00 | 93 | 1017.8 |
| 20260906090525 | 18 | 0 | 0.0 | 6.4 | 0.00 | 0.00 | 0.00 | 93 | 1017.9 |
| 20260906090040 | 18 | 0 | 0.0 | 6.4 | 0.00 | 0.00 | 0.00 | 93 | 1018.0 |
| 20260906085520 | 18 | 343 | 3.2 | 8.0 | 0.00 | 0.00 | 0.00 | 93 | 1018.0 |
| 20260906085019 | 18 | 349 | 0.0 | 8.0 | 0.00 | 0.00 | 0.00 | 93 | 1018.0 |
| 20260906084547 | 17 | 5 | 3.2 | 8.0 | 0.00 | 0.00 | 0.00 | 93 | 1018.0 |
| 20260906084020 | 17 | 351 | 1.6 | 4.8 | 0.00 | 0.00 | 0.00 | 93 | 1018.0 |
| 20260906083517 | 17 | 0 | 0.0 | 4.8 | 0.00 | 0.00 | 0.00 | 93 | 1018.0 |
| 20260906083039 | 18 | 0 | 0.0 | 4.8 | 0.00 | 0.00 | 0.00 | 93 | 1017.9 |
| 20260906082520 | 18 | 0 | 0.0 | 4.8 | 0.00 | 0.00 | 0.00 | 93 | 1017.8 |
| 20260906082016 | 18 | 344 | 0.0 | 4.8 | 0.00 | 0.00 | 0.00 | 93 | 1017.9 |
| 20260906081539 | 18 | 0 | 0.0 | 0.0 | 0.00 | 0.00 | 0.00 | 93 | 1017.9 |
| 20260906081018 | 18 | 0 | 0.0 | 0.0 | 0.00 | 0.00 | 0.00 | 93 | 1018.0 |
| 20260906080518 | 18 | 0 | 0.0 | 0.0 | 0.00 | 0.00 | 0.00 | 94 | 1017.8 |
| 20260906080050 | 18 | 0 | 0.0 | 0.0 | 0.00 | 0.00 | 0.00 | 94 | 1017.9 |
| 20260906075517 | 18 | 0 | 0.0 | 0.0 | 0.00 | 0.00 | 0.00 | 94 | 1017.8 |
| 20260906075017 | 18 | 0 | 0.0 | 0.0 | 0.00 | 0.00 | 0.00 | 94 | 1017.9 |
| 20260906074542 | 18 | 0 | 0.0 | 0.0 | 0.00 | 0.00 | 0.00 | 94 | 1017.8 |
| 20260906074016 | 18 | 0 | 0.0 | 0.0 | 0.00 | 0.00 | 0.00 | 94 | 1017.7 |
| 20260906073516 | 18 | 0 | 0.0 | 0.0 | 0.00 | 0.00 | 0.00 | 94 | 1017.6 |
| 20260906073034 | 18 | 0 | 0.0 | 0.0 | 0.00 | 0.00 | 0.00 | 94 | 1017.6 |
| 20260906072519 | 18 | 0 | 0.0 | 0.0 | 0.00 | 0.00 | 0.00 | 94 | 1017.6 |
| 20260906072019 | 17 | 0 | 0.0 | 0.0 | 0.00 | 0.00 | 0.00 | 94 | 1017.6 |
| 20260906071536 | 17 | 0 | 0.0 | 0.0 | 0.00 | 0.00 | 0.00 | 94 | 1017.6 |
| 20260906071019 | 18 | 0 | 0.0 | 0.0 | 0.00 | 0.00 | 0.00 | 93 | 1017.6 |
| 20260906070517 | 18 | 0 | 0.0 | 0.0 | 0.00 | 0.00 | 0.00 | 93 | 1017.6 |
| 20260906070040 | 18 | 0 | 0.0 | 0.0 | 0.00 | 0.00 | 0.00 | 93 | 1017.5 |
| 20260906065518 | 18 | 0 | 0.0 | 0.0 | 0.00 | 0.00 | 0.00 | 93 | 1017.6 |
| 20260906065016 | 18 | 0 | 0.0 | 0.0 | 0.00 | 0.00 | 0.00 | 93 | 1017.7 |
| 20260906064536 | 18 | 0 | 0.0 | 0.0 | 0.00 | 0.00 | 0.00 | 94 | 1017.7 |
| 20260906064020 | 18 | 0 | 0.0 | 0.0 | 0.00 | 0.00 | 0.00 | 94 | 1017.8 |
| 20260906063518 | 18 | 0 | 0.0 | 0.0 | 0.00 | 0.00 | 0.00 | 94 | 1017.8 |
| 20260906063040 | 18 | 0 | 0.0 | 0.0 | 0.00 | 0.00 | 0.00 | 94 | 1017.8 |
| 20260906062515 | 18 | 0 | 0.0 | 0.0 | 0.00 | 0.00 | 0.00 | 94 | 1017.8 |
| 20260906062021 | 18 | 0 | 0.0 | 0.0 | 0.00 | 0.00 | 0.00 | 94 | 1017.7 |
| 20260906061541 | 18 | 0 | 0.0 | 0.0 | 0.00 | 0.00 | 0.00 | 94 | 1017.7 |
| 20260906061021 | 18 | 0 | 0.0 | 0.0 | 0.00 | 0.00 | 0.00 | 94 | 1017.7 |
| 20260906060521 | 18 | 0 | 0.0 | 0.0 | 0.00 | 0.00 | 0.00 | 94 | 1017.7 |
| 20260906060047 | 18 | 0 | 0.0 | 0.0 | 0.00 | 0.00 | 0.00 | 94 | 1017.7 |
| 20260906055519 | 18 | 0 | 0.0 | 0.0 | 0.00 | 0.00 | 0.00 | 94 | 1017.6 |
| 20260906055018 | 17 | 0 | 0.0 | 4.8 | 0.00 | 0.00 | 0.00 | 93 | 1017.6 |
| 20260906054536 | 17 | 0 | 0.0 | 4.8 | 0.00 | 0.00 | 0.00 | 93 | 1017.6 |
| 20260906054016 | 17 | 34 | 0.0 | 4.8 | 0.00 | 0.00 | 0.00 | 93 | 1017.7 |
| 20260906053518 | 18 | 0 | 0.0 | 4.8 | 0.00 | 0.00 | 0.00 | 92 | 1017.7 |
| 20260906053035 | 18 | 0 | 0.0 | 0.0 | 0.00 | 0.00 | 0.00 | 93 | 1017.7 |
| 20260906052517 | 18 | 0 | 0.0 | 4.8 | 0.00 | 0.00 | 0.00 | 93 | 1017.7 |
| 20260906052018 | 18 | 0 | 0.0 | 4.8 | 0.00 | 0.00 | 0.00 | 92 | 1017.6 |
| 20260906051537 | 18 | 0 | 0.0 | 4.8 | 0.00 | 0.00 | 0.00 | 92 | 1017.5 |
| 20260906051019 | 18 | 0 | 0.0 | 6.4 | 0.00 | 0.00 | 0.00 | 93 | 1017.5 |
| 20260906050518 | 18 | 0 | 0.0 | 11.3 | 0.00 | 0.00 | 0.00 | 92 | 1017.5 |
| 20260906050039 | 18 | 0 | 3.2 | 11.3 | 0.00 | 0.00 | 0.00 | 92 | 1017.5 |
| 20260906045516 | 18 | 352 | 1.6 | 8.0 | 0.00 | 0.00 | 0.00 | 92 | 1017.5 |
| 20260906045017 | 18 | 350 | 3.2 | 9.7 | 0.00 | 0.00 | 0.00 | 92 | 1017.5 |
| 20260906044538 | 18 | 360 | 3.2 | 11.3 | 0.00 | 0.00 | 0.00 | 92 | 1017.5 |
| 20260906044022 | 18 | 18 | 3.2 | 11.3 | 0.00 | 0.00 | 0.00 | 92 | 1017.5 |
| 20260906043517 | 18 | 5 | 4.8 | 9.7 | 0.00 | 0.00 | 0.00 | 91 | 1017.3 |
| 20260906043037 | 18 | 336 | 3.2 | 6.4 | 0.00 | 0.00 | 0.00 | 91 | 1017.2 |
| 20260906042518 | 18 | 0 | 0.0 | 4.8 | 0.00 | 0.00 | 0.00 | 91 | 1017.1 |
| 20260906042017 | 18 | 0 | 0.0 | 4.8 | 0.00 | 0.00 | 0.00 | 91 | 1017.1 |
| 20260906041544 | 18 | 42 | 0.0 | 4.8 | 0.00 | 0.00 | 0.00 | 91 | 1017.0 |
| 20260906041018 | 18 | 49 | 0.0 | 4.8 | 0.00 | 0.00 | 0.00 | 91 | 1017.0 |
| 20260906040515 | 19 | 14 | 1.6 | 8.0 | 0.00 | 0.00 | 0.00 | 91 | 1017.0 |
| 20260906040046 | 19 | 0 | 0.0 | 8.0 | 0.00 | 0.00 | 0.00 | 91 | 1017.0 |
| 20260906035522 | 19 | 337 | 1.6 | 8.0 | 0.00 | 0.00 | 0.00 | 90 | 1017.0 |
| 20260906035018 | 19 | 20 | 0.0 | 4.8 | 0.00 | 0.00 | 0.00 | 90 | 1017.2 |
| 20260906034538 | 19 | 352 | 0.0 | 4.8 | 0.00 | 0.00 | 0.00 | 90 | 1017.2 |
| 20260906034019 | 19 | 63 | 0.0 | 6.4 | 0.00 | 0.00 | 0.00 | 89 | 1017.2 |
| 20260906033518 | 19 | 30 | 1.6 | 6.4 | 0.00 | 0.00 | 0.00 | 89 | 1017.1 |
| 20260906033037 | 19 | 28 | 1.6 | 4.8 | 0.00 | 0.00 | 0.00 | 89 | 1017.1 |
| 20260906032516 | 19 | 41 | 0.0 | 6.4 | 0.00 | 0.00 | 0.00 | 89 | 1017.1 |
| 20260906032018 | 19 | 30 | 1.6 | 9.7 | 0.00 | 0.00 | 0.00 | 89 | 1017.0 |
| 20260906031539 | 19 | 18 | 1.6 | 9.7 | 0.00 | 0.00 | 0.00 | 88 | 1017.0 |
| 20260906031017 | 19 | 0 | 0.0 | 4.8 | 0.00 | 0.00 | 0.00 | 88 | 1017.1 |
| 20260906030516 | 19 | 9 | 1.6 | 6.4 | 0.00 | 0.00 | 0.00 | 88 | 1017.1 |
| 20260906030037 | 19 | 5 | 1.6 | 8.0 | 0.00 | 0.00 | 0.00 | 87 | 1017.1 |
| 20260906025521 | 19 | 24 | 1.6 | 9.7 | 0.00 | 0.00 | 0.00 | 87 | 1017.1 |
| 20260906025022 | 19 | 352 | 3.2 | 9.7 | 0.00 | 0.00 | 0.00 | 87 | 1017.2 |
| 20260906024536 | 19 | 10 | 3.2 | 9.7 | 0.00 | 0.00 | 0.00 | 87 | 1017.0 |
| 20260906024019 | 20 | 336 | 3.2 | 11.3 | 0.00 | 0.00 | 0.00 | 87 | 1016.8 |
| 20260906023520 | 20 | 19 | 3.2 | 11.3 | 0.00 | 0.00 | 0.00 | 87 | 1016.9 |
| 20260906023044 | 20 | 17 | 3.2 | 11.3 | 0.00 | 0.00 | 0.00 | 86 | 1016.8 |
| 20260906022521 | 20 | 28 | 3.2 | 11.3 | 0.00 | 0.00 | 0.00 | 86 | 1016.8 |
| 20260906022023 | 20 | 28 | 3.2 | 8.0 | 0.00 | 0.00 | 0.00 | 85 | 1016.7 |
| 20260906021540 | 20 | 38 | 1.6 | 14.5 | 0.00 | 0.00 | 0.00 | 85 | 1016.8 |
| 20260906021019 | 20 | 39 | 1.6 | 14.5 | 0.00 | 0.00 | 0.00 | 85 | 1016.8 |
| 20260906020518 | 20 | 38 | 1.6 | 9.7 | 0.00 | 0.00 | 0.00 | 85 | 1016.8 |
| 20260906020039 | 20 | 34 | 1.6 | 8.0 | 0.00 | 0.00 | 0.00 | 85 | 1016.8 |
| 20260906015518 | 20 | 35 | 3.2 | 8.0 | 0.00 | 0.00 | 0.00 | 85 | 1016.8 |
| 20260906015016 | 20 | 24 | 3.2 | 8.0 | 0.00 | 0.00 | 0.00 | 85 | 1016.7 |
| 20260906014539 | 20 | 56 | 1.6 | 8.0 | 0.00 | 0.00 | 0.00 | 85 | 1017.0 |
| 20260906014016 | 20 | 355 | 1.6 | 12.9 | 0.00 | 0.00 | 0.00 | 85 | 1016.8 |
| 20260906013518 | 20 | 360 | 3.2 | 12.9 | 0.00 | 0.00 | 0.00 | 85 | 1016.8 |
| 20260906013034 | 20 | 346 | 3.2 | 11.3 | 0.00 | 0.00 | 0.00 | 85 | 1016.7 |
| 20260906012515 | 20 | 342 | 3.2 | 11.3 | 0.00 | 0.00 | 0.00 | 85 | 1016.8 |
| 20260906012016 | 20 | 15 | 1.6 | 12.9 | 0.00 | 0.00 | 0.00 | 84 | 1016.7 |
| 20260906011538 | 20 | 5 | 1.6 | 12.9 | 0.00 | 0.00 | 0.00 | 85 | 1016.7 |
| 20260906011017 | 20 | 42 | 4.8 | 14.5 | 0.00 | 0.00 | 0.00 | 85 | 1016.8 |
| 20260906010518 | 20 | 360 | 6.4 | 14.5 | 0.00 | 0.00 | 0.00 | 84 | 1016.8 |
| 20260906010037 | 20 | 329 | 3.2 | 8.0 | 0.00 | 0.00 | 0.00 | 85 | 1016.7 |
| 20260906005516 | 20 | 15 | 1.6 | 12.9 | 0.00 | 0.00 | 0.00 | 84 | 1016.7 |
| 20260906005020 | 20 | 26 | 3.2 | 12.9 | 0.00 | 0.00 | 0.00 | 84 | 1016.7 |
| 20260906004536 | 21 | 15 | 3.2 | 11.3 | 0.00 | 0.00 | 0.00 | 86 | 1016.5 |
| 20260906004021 | 21 | 46 | 3.2 | 11.3 | 0.00 | 0.00 | 0.00 | 86 | 1016.6 |
| 20260906003516 | 21 | 11 | 0.0 | 6.4 | 0.00 | 0.00 | 0.00 | 86 | 1016.5 |
| 20260906003038 | 21 | 0 | 1.6 | 6.4 | 0.00 | 0.00 | 0.00 | 86 | 1016.5 |
| 20260906002518 | 21 | 360 | 1.6 | 9.7 | 0.00 | 0.00 | 0.00 | 86 | 1016.5 |
| 20260906002016 | 21 | 0 | 1.6 | 14.5 | 0.00 | 0.00 | 0.00 | 86 | 1016.5 |
| 20260906001540 | 21 | 352 | 4.8 | 14.5 | 0.00 | 0.00 | 0.00 | 86 | 1016.7 |
| 20260906001019 | 21 | 22 | 1.6 | 8.0 | 0.00 | 0.00 | 0.00 | 86 | 1016.6 |
| 20260906000523 | 21 | 309 | 1.6 | 8.0 | 0.00 | 0.00 | 0.00 | 86 | 1016.5 |
| 20260906000039 | 21 | 0 | 1.6 | 12.9 | 0.00 | 0.00 | 0.00 | 86 | 1016.5 |
| 20260905235519 | 21 | 43 | 3.2 | 12.9 | 0.00 | 0.00 | 0.00 | 86 | 1016.6 |
| 20260905235016 | 21 | 360 | 4.8 | 12.9 | 0.00 | 0.00 | 0.00 | 87 | 1016.7 |
| 20260905234535 | 21 | 24 | 3.2 | 12.9 | 0.00 | 0.00 | 0.00 | 87 | 1016.6 |
| 20260905234021 | 21 | 44 | 1.6 | 14.5 | 0.00 | 0.00 | 0.00 | 87 | 1016.6 |
| 20260905233516 | 21 | 48 | 3.2 | 14.5 | 0.00 | 0.00 | 0.00 | 87 | 1016.7 |
| 20260905233037 | 21 | 38 | 3.2 | 16.1 | 0.00 | 0.00 | 0.00 | 87 | 1016.7 |
| 20260905232515 | 21 | 80 | 4.8 | 16.1 | 0.00 | 0.00 | 0.00 | 87 | 1016.6 |
| 20260905232018 | 21 | 337 | 3.2 | 14.5 | 0.00 | 0.00 | 0.00 | 88 | 1016.7 |
| 20260905231549 | 21 | 19 | 0.0 | 16.1 | 0.00 | 0.00 | 0.00 | 88 | 1016.7 |
| 20260905231019 | 21 | 339 | 3.2 | 16.1 | 0.00 | 0.00 | 0.00 | 88 | 1016.7 |
| 20260905230524 | 21 | 0 | 4.8 | 16.1 | 0.00 | 0.00 | 0.00 | 88 | 1016.6 |
| 20260905230045 | 21 | 14 | 4.8 | 14.5 | 0.00 | 0.00 | 0.00 | 88 | 1016.7 |
| 20260905225518 | 21 | 63 | 4.8 | 14.5 | 0.00 | 0.00 | 0.00 | 88 | 1016.7 |
| 20260905225020 | 21 | 22 | 3.2 | 14.5 | 0.00 | 0.00 | 0.00 | 87 | 1016.6 |
| 20260905224547 | 21 | 352 | 6.4 | 14.5 | 0.00 | 0.00 | 0.00 | 87 | 1016.8 |
| 20260905224019 | 21 | 335 | 3.2 | 14.5 | 0.00 | 0.00 | 0.00 | 86 | 1016.7 |
| 20260905223522 | 21 | 52 | 3.2 | 14.5 | 0.00 | 0.00 | 0.00 | 86 | 1016.6 |
| 20260905223039 | 21 | 101 | 3.2 | 16.1 | 0.00 | 0.00 | 0.00 | 86 | 1016.5 |
| 20260905222527 | 21 | 53 | 4.8 | 16.1 | 0.00 | 0.00 | 0.00 | 86 | 1016.4 |
| 20260905222017 | 21 | 331 | 3.2 | 12.9 | 0.00 | 0.00 | 0.00 | 86 | 1016.3 |
| 20260905221541 | 22 | 339 | 3.2 | 14.5 | 0.00 | 0.00 | 0.00 | 86 | 1016.1 |
| 20260905221018 | 21 | 5 | 3.2 | 16.1 | 0.00 | 0.00 | 0.00 | 86 | 1016.2 |
| 20260905220522 | 22 | 50 | 3.2 | 16.1 | 0.00 | 0.00 | 0.00 | 85 | 1016.0 |
| 20260905220035 | 22 | 17 | 6.4 | 16.1 | 0.00 | 0.00 | 0.00 | 85 | 1016.1 |
| 20260905215516 | 22 | 13 | 4.8 | 19.3 | 0.00 | 0.00 | 0.00 | 85 | 1016.0 |
| 20260905215018 | 22 | 360 | 4.8 | 19.3 | 0.00 | 0.00 | 0.00 | 85 | 1016.0 |
| 20260905214540 | 22 | 34 | 6.4 | 20.9 | 0.00 | 0.00 | 0.00 | 84 | 1015.9 |
| 20260905214018 | 22 | 40 | 8.0 | 20.9 | 0.00 | 0.00 | 0.00 | 84 | 1015.9 |
| 20260905213520 | 22 | 15 | 4.8 | 16.1 | 0.00 | 0.00 | 0.00 | 85 | 1016.0 |
| 20260905213039 | 22 | 24 | 6.4 | 16.1 | 0.00 | 0.00 | 0.00 | 85 | 1015.8 |
| 20260905212518 | 22 | 274 | 6.4 | 16.1 | 0.00 | 0.00 | 0.00 | 84 | 1015.8 |
| 20260905212022 | 22 | 43 | 4.8 | 16.1 | 0.00 | 0.00 | 0.00 | 84 | 1015.9 |
| 20260905211535 | 22 | 69 | 3.2 | 16.1 | 0.00 | 0.00 | 0.00 | 84 | 1015.9 |
| 20260905211019 | 22 | 34 | 4.8 | 17.7 | 0.00 | 0.00 | 0.00 | 83 | 1015.8 |
| 20260905210519 | 22 | 101 | 4.8 | 19.3 | 0.00 | 0.00 | 0.00 | 84 | 1015.8 |
| 20260905210038 | 22 | 51 | 8.0 | 19.3 | 0.00 | 0.00 | 0.00 | 83 | 1015.7 |
| 20260905205518 | 23 | 344 | 4.8 | 17.7 | 0.00 | 0.00 | 0.00 | 83 | 1015.8 |
| 20260905205021 | 23 | 346 | 6.4 | 19.3 | 0.00 | 0.00 | 0.00 | 82 | 1015.8 |
| 20260905204535 | 23 | 63 | 4.8 | 19.3 | 0.00 | 0.00 | 0.00 | 81 | 1015.8 |
| 20260905204017 | 23 | 26 | 8.0 | 19.3 | 0.00 | 0.00 | 0.00 | 80 | 1015.7 |
| 20260905203519 | 24 | 24 | 9.7 | 17.7 | 0.00 | 0.00 | 0.00 | 80 | 1015.7 |
| 20260905203038 | 24 | 99 | 4.8 | 20.9 | 0.00 | 0.00 | 0.00 | 80 | 1015.6 |
| 20260905202518 | 24 | 46 | 6.4 | 20.9 | 0.00 | 0.00 | 0.00 | 80 | 1015.7 |
| 20260905202016 | 24 | 328 | 8.0 | 19.3 | 0.00 | 0.00 | 0.00 | 81 | 1015.7 |
| 20260905201539 | 24 | 0 | 3.2 | 9.7 | 0.00 | 0.00 | 0.00 | 80 | 1015.7 |
| 20260905201017 | 24 | 105 | 3.2 | 14.5 | 0.00 | 0.00 | 0.00 | 80 | 1015.7 |
| 20260905200520 | 24 | 92 | 4.8 | 20.9 | 0.00 | 0.00 | 0.00 | 80 | 1015.7 |
| 20260905200037 | 24 | 310 | 3.2 | 20.9 | 0.00 | 0.00 | 0.00 | 81 | 1015.6 |
| 20260905195519 | 24 | 0 | 3.2 | 14.5 | 0.00 | 0.00 | 0.00 | 81 | 1015.7 |
| 20260905195017 | 24 | 83 | 4.8 | 17.7 | 0.00 | 0.00 | 0.00 | 81 | 1015.8 |
| 20260905194537 | 24 | 39 | 3.2 | 20.9 | 0.00 | 0.00 | 0.00 | 81 | 1015.8 |
| 20260905194019 | 24 | 51 | 8.0 | 20.9 | 0.00 | 0.00 | 0.00 | 81 | 1015.8 |
| 20260905193519 | 24 | 306 | 4.8 | 19.3 | 0.00 | 0.00 | 0.00 | 81 | 1015.8 |
| 20260905193033 | 24 | 331 | 8.0 | 19.3 | 0.00 | 0.00 | 0.00 | 82 | 1015.8 |
| 20260905192525 | 24 | 352 | 4.8 | 16.1 | 0.00 | 0.00 | 0.00 | 81 | 1015.7 |
| 20260905192018 | 24 | 5 | 1.6 | 12.9 | 0.00 | 0.00 | 0.00 | 82 | 1015.8 |
| 20260905191538 | 24 | 323 | 6.4 | 14.5 | 0.00 | 0.00 | 0.00 | 82 | 1015.7 |
| 20260905191016 | 24 | 109 | 4.8 | 14.5 | 0.00 | 0.00 | 0.00 | 83 | 1015.7 |
| 20260905190522 | 24 | 55 | 4.8 | 17.7 | 0.00 | 0.00 | 0.00 | 82 | 1015.7 |
| 20260905190056 | 25 | 22 | 4.8 | 20.9 | 0.00 | 0.00 | 0.00 | 81 | 1015.7 |
| 20260905185521 | 25 | 13 | 6.4 | 20.9 | 0.00 | 0.00 | 0.00 | 81 | 1015.8 |
| 20260905185019 | 25 | 17 | 4.8 | 20.9 | 0.00 | 0.00 | 0.00 | 81 | 1015.7 |
| 20260905184548 | 25 | 36 | 1.6 | 11.3 | 0.00 | 0.00 | 0.00 | 83 | 1015.7 |
| 20260905184018 | 25 | 59 | 3.2 | 14.5 | 0.00 | 0.00 | 0.00 | 82 | 1015.7 |
| 20260905183523 | 25 | 26 | 1.6 | 14.5 | 0.00 | 0.00 | 0.00 | 82 | 1015.7 |
| 20260905183036 | 25 | 87 | 3.2 | 14.5 | 0.00 | 0.00 | 0.00 | 82 | 1015.6 |
| 20260905182518 | 25 | 55 | 4.8 | 14.5 | 0.00 | 0.00 | 0.00 | 81 | 1015.6 |
| 20260905182018 | 25 | 51 | 3.2 | 16.1 | 0.00 | 0.00 | 0.00 | 81 | 1015.7 |
| 20260905181543 | 25 | 38 | 6.4 | 17.7 | 0.00 | 0.00 | 0.00 | 80 | 1015.6 |
| 20260905181017 | 25 | 30 | 3.2 | 17.7 | 0.00 | 0.00 | 0.00 | 81 | 1015.7 |
| 20260905180518 | 25 | 29 | 9.7 | 17.7 | 0.00 | 0.00 | 0.00 | 80 | 1015.7 |
| 20260905180036 | 25 | 20 | 4.8 | 14.5 | 0.00 | 0.00 | 0.00 | 81 | 1015.7 |
| 20260905175521 | 25 | 9 | 4.8 | 14.5 | 0.00 | 0.00 | 0.00 | 80 | 1015.6 |
| 20260905175017 | 25 | 34 | 1.6 | 16.1 | 0.00 | 0.00 | 0.00 | 81 | 1015.6 |
| 20260905174544 | 25 | 351 | 4.8 | 16.1 | 0.00 | 0.00 | 0.00 | 80 | 1015.5 |
| 20260905174018 | 25 | 348 | 6.4 | 14.5 | 0.00 | 0.00 | 0.00 | 81 | 1015.6 |
| 20260905173519 | 25 | 44 | 4.8 | 14.5 | 0.00 | 0.00 | 0.00 | 80 | 1015.7 |
| 20260905173040 | 25 | 34 | 1.6 | 11.3 | 0.00 | 0.00 | 0.00 | 82 | 1015.6 |
| 20260905172516 | 25 | 347 | 1.6 | 8.0 | 0.00 | 0.00 | 0.00 | 82 | 1015.7 |
| 20260905172018 | 25 | 39 | 3.2 | 8.0 | 0.00 | 0.00 | 0.00 | 81 | 1015.6 |
| 20260905171539 | 25 | 349 | 1.6 | 6.4 | 0.00 | 0.00 | 0.00 | 81 | 1015.6 |
| 20260905171020 | 25 | 10 | 1.6 | 9.7 | 0.00 | 0.00 | 0.00 | 81 | 1015.7 |
| 20260905170520 | 25 | 44 | 1.6 | 9.7 | 0.00 | 0.00 | 0.00 | 80 | 1015.7 |
| 20260905170035 | 25 | 5 | 3.2 | 11.3 | 0.00 | 0.00 | 0.00 | 80 | 1015.6 |
| 20260905165519 | 25 | 47 | 1.6 | 11.3 | 0.00 | 0.03 | 0.00 | 80 | 1015.8 |
| 20260905165019 | 25 | 0 | 1.6 | 14.5 | 0.00 | 0.03 | 0.00 | 80 | 1015.8 |
| 20260905164535 | 25 | 68 | 1.6 | 14.5 | 0.00 | 0.03 | 0.00 | 81 | 1015.8 |
| 20260905164017 | 25 | 41 | 6.4 | 14.5 | 0.00 | 0.03 | 0.00 | 81 | 1015.8 |
| 20260905163516 | 25 | 348 | 6.4 | 14.5 | 0.00 | 0.03 | 0.00 | 81 | 1015.7 |
| 20260905163037 | 25 | 21 | 3.2 | 12.9 | 0.00 | 0.03 | 0.00 | 84 | 1015.6 |
| 20260905162520 | 24 | 66 | 1.6 | 12.9 | 0.00 | 0.03 | 0.00 | 84 | 1015.7 |
| 20260905162017 | 24 | 328 | 1.6 | 12.9 | 0.00 | 0.03 | 0.00 | 86 | 1015.7 |
| 20260905161537 | 24 | 340 | 3.2 | 14.5 | 0.00 | 0.03 | 0.00 | 84 | 1015.8 |
| 20260905161020 | 24 | 45 | 3.2 | 14.5 | 0.00 | 0.03 | 0.00 | 84 | 1015.8 |
| 20260905160519 | 23 | 5 | 4.8 | 14.5 | 0.00 | 0.03 | 0.00 | 84 | 1015.8 |
| 20260905160036 | 23 | 47 | 1.6 | 11.3 | 0.00 | 0.03 | 0.00 | 85 | 1015.8 |
| 20260905155517 | 23 | 46 | 1.6 | 11.3 | 0.00 | 0.36 | 0.00 | 86 | 1015.8 |
| 20260905155018 | 23 | 360 | 3.2 | 16.1 | 0.00 | 0.36 | 0.00 | 86 | 1015.8 |
| 20260905154537 | 23 | 22 | 3.2 | 16.1 | 0.00 | 0.36 | 0.00 | 86 | 1015.7 |
| 20260905154016 | 23 | 343 | 4.8 | 14.5 | 0.00 | 0.36 | 0.00 | 87 | 1015.7 |
| 20260905153521 | 23 | 55 | 3.2 | 9.7 | 0.00 | 0.36 | 0.00 | 87 | 1015.8 |
| 20260905153038 | 23 | 74 | 3.2 | 8.0 | 0.00 | 0.36 | 0.00 | 87 | 1015.6 |
| 20260905152521 | 23 | 348 | 3.2 | 11.3 | 0.00 | 0.36 | 0.00 | 87 | 1015.7 |
| 20260905152020 | 23 | 51 | 3.2 | 19.3 | 0.00 | 0.36 | 0.00 | 87 | 1015.7 |
| 20260905151542 | 23 | 88 | 4.8 | 19.3 | 0.00 | 0.36 | 0.00 | 86 | 1015.5 |
| 20260905151019 | 23 | 360 | 3.2 | 17.7 | 0.00 | 0.36 | 0.00 | 86 | 1015.4 |
| 20260905150520 | 23 | 0 | 3.2 | 17.7 | 0.00 | 0.36 | 0.00 | 86 | 1015.4 |
| 20260905150039 | 23 | 352 | 8.0 | 14.5 | 0.00 | 0.36 | 0.00 | 86 | 1015.4 |
| 20260905145517 | 23 | 22 | 8.0 | 14.5 | 0.00 | 0.53 | 0.00 | 86 | 1015.4 |
| 20260905145016 | 23 | 5 | 3.2 | 14.5 | 0.00 | 0.53 | 0.00 | 86 | 1015.3 |
| 20260905144540 | 23 | 352 | 3.2 | 14.5 | 0.00 | 0.53 | 0.00 | 86 | 1015.3 |
| 20260905144017 | 23 | 343 | 4.8 | 12.9 | 0.00 | 0.53 | 0.00 | 87 | 1015.2 |
| 20260905143516 | 23 | 15 | 3.2 | 12.9 | 0.00 | 0.53 | 0.00 | 89 | 1015.1 |
| 20260905143039 | 22 | 53 | 3.2 | 8.0 | 0.00 | 0.53 | 0.00 | 89 | 1015.0 |
| 20260905142521 | 22 | 27 | 1.6 | 12.9 | 0.00 | 0.53 | 0.00 | 90 | 1015.0 |
| 20260905142018 | 22 | 16 | 4.8 | 14.5 | 0.00 | 0.53 | 0.00 | 91 | 1015.0 |
| 20260905141543 | 22 | 0 | 1.6 | 14.5 | 0.00 | 0.53 | 0.00 | 92 | 1015.0 |
| 20260905141020 | 22 | 350 | 1.6 | 12.9 | 0.00 | 0.53 | 0.00 | 92 | 1015.1 |
| 20260905140516 | 22 | 355 | 3.2 | 16.1 | 0.00 | 0.53 | 0.00 | 92 | 1015.0 |